Time,TemperatureF,DewpointF,PressureIn,WindDirection,WindDirectionDegrees,WindSpeedMPH,WindSpeedGustMPH,Humidity,HourlyPrecipIn,Conditions,Clouds,dailyrainin,SoftwareType,DateUTC
2013-03-23 00:03:00,34.0,14.0,-100.00,West,280,0.0,0.0,43,-99.99,,,-99.99,,2013-03-23 04:03:00,
2013-03-23 00:13:00,33.0,14.0,-100.00,NW,305,0.0,0.0,44,-99.99,,,-99.99,,2013-03-23 04:13:00,
2013-03-23 00:23:00,33.0,14.0,-100.00,NW,305,0.0,0.0,44,-99.99,,,-99.99,,2013-03-23 04:23:00,
2013-03-23 00:33:00,33.0,14.0,-100.00,NW,325,0.0,0.0,44,-99.99,,,-99.99,,2013-03-23 04:33:00,
2013-03-23 00:43:00,33.0,14.0,-100.00,NW,320,0.0,0.0,45,-99.99,,,-99.99,,2013-03-23 04:43:00,
2013-03-23 00:53:00,33.0,14.0,-100.00,NW,320,0.0,0.0,45,-99.99,,,-99.99,,2013-03-23 04:53:00,
2013-03-23 01:02:00,33.0,14.0,-100.00,WSW,240,0.0,0.0,45,-99.99,,,-99.99,,2013-03-23 05:02:00,
2013-03-23 01:12:00,32.0,13.0,-100.00,NW,310,0.0,0.0,46,-99.99,,,-99.99,,2013-03-23 05:12:00,
2013-03-23 01:22:00,32.0,13.0,-100.00,NW,310,0.0,0.0,46,-99.99,,,-99.99,,2013-03-23 05:22:00,
2013-03-23 01:33:00,31.0,14.0,-100.00,WNW,300,0.0,0.0,47,-99.99,,,-99.99,,2013-03-23 05:33:00,
2013-03-23 01:42:00,32.0,14.0,-100.00,WNW,285,0.0,0.0,47,-99.99,,,-99.99,,2013-03-23 05:42:00,
2013-03-23 01:53:00,32.0,14.0,-100.00,WNW,285,0.0,0.0,47,-99.99,,,-99.99,,2013-03-23 05:53:00,
2013-03-23 02:02:00,31.0,13.0,-100.00,WNW,285,0.0,0.0,47,-99.99,,,-99.99,,2013-03-23 06:02:00,
2013-03-23 02:12:00,31.0,13.0,-100.00,West,270,0.0,0.0,48,-99.99,,,-99.99,,2013-03-23 06:12:00,
2013-03-23 02:22:00,31.0,13.0,-100.00,West,270,0.0,0.0,48,-99.99,,,-99.99,,2013-03-23 06:22:00,
2013-03-23 02:32:00,30.0,14.0,-100.00,WNW,290,0.0,0.0,50,-99.99,,,-99.99,,2013-03-23 06:32:00,
2013-03-23 02:42:00,30.0,14.0,-100.00,NNE,15,0.0,0.0,51,-99.99,,,-99.99,,2013-03-23 06:42:00,
2013-03-23 02:52:00,30.0,14.0,-100.00,NNE,15,0.0,0.0,51,-99.99,,,-99.99,,2013-03-23 06:52:00,
2013-03-23 03:03:00,30.0,14.0,-100.00,WSW,250,0.0,0.0,51,-99.99,,,-99.99,,2013-03-23 07:03:00,
2013-03-23 03:12:00,30.0,14.0,-100.00,WNW,285,0.0,0.0,51,-99.99,,,-99.99,,2013-03-23 07:12:00,
2013-03-23 03:22:00,30.0,14.0,-100.00,WNW,285,0.0,0.0,51,-99.99,,,-99.99,,2013-03-23 07:22:00,
2013-03-23 03:33:00,30.0,14.0,-100.00,NW,320,0.0,0.0,51,-99.99,,,-99.99,,2013-03-23 07:33:00,
2013-03-23 03:42:00,31.0,14.0,-100.00,NNW,330,0.0,0.0,50,-99.99,,,-99.99,,2013-03-23 07:42:00,
2013-03-23 03:52:00,31.0,14.0,-100.00,NNW,330,0.0,0.0,50,-99.99,,,-99.99,,2013-03-23 07:52:00,
2013-03-23 04:03:00,31.0,14.0,-100.00,NW,305,0.0,0.0,50,-99.99,,,-99.99,,2013-03-23 08:03:00,
2013-03-23 04:13:00,31.0,14.0,-100.00,NW,305,0.0,0.0,50,-99.99,,,-99.99,,2013-03-23 08:13:00,
2013-03-23 04:22:00,31.0,14.0,-100.00,NW,305,0.0,0.0,50,-99.99,,,-99.99,,2013-03-23 08:22:00,
2013-03-23 04:42:00,30.0,14.0,-100.00,NW,305,0.0,0.0,51,-99.99,,,-99.99,,2013-03-23 08:42:00,
2013-03-23 04:52:00,30.0,14.0,-100.00,NW,305,0.0,0.0,51,-99.99,,,-99.99,,2013-03-23 08:52:00,
2013-03-23 05:02:00,30.0,15.0,-100.00,WNW,300,0.0,0.0,52,-99.99,,,-99.99,,2013-03-23 09:02:00,
2013-03-23 05:12:00,30.0,15.0,-100.00,WNW,295,0.0,0.0,52,-99.99,,,-99.99,,2013-03-23 09:12:00,
2013-03-23 05:22:00,30.0,15.0,-100.00,WNW,295,0.0,0.0,52,-99.99,,,-99.99,,2013-03-23 09:22:00,
2013-03-23 05:33:00,30.0,15.0,-100.00,WNW,285,0.0,0.0,52,-99.99,,,-99.99,,2013-03-23 09:33:00,
2013-03-23 05:43:00,30.0,15.0,-100.00,WNW,295,0.0,0.0,53,-99.99,,,-99.99,,2013-03-23 09:43:00,
2013-03-23 05:53:00,30.0,15.0,-100.00,WNW,295,0.0,0.0,53,-99.99,,,-99.99,,2013-03-23 09:53:00,
2013-03-23 06:03:00,30.0,15.0,-100.00,NW,305,0.0,0.0,53,-99.99,,,-99.99,,2013-03-23 10:03:00,
2013-03-23 06:13:00,29.0,15.0,-100.00,WNW,300,0.0,0.0,54,-99.99,,,-99.99,,2013-03-23 10:13:00,
2013-03-23 06:24:00,29.0,15.0,-100.00,WNW,300,0.0,0.0,54,-99.99,,,-99.99,,2013-03-23 10:24:00,
2013-03-23 06:34:00,29.0,14.0,-100.00,WNW,295,0.0,0.0,54,-99.99,,,-99.99,,2013-03-23 10:34:00,
2013-03-23 06:43:00,29.0,15.0,-100.00,WSW,245,0.0,0.0,56,-99.99,,,-99.99,,2013-03-23 10:43:00,
2013-03-23 06:52:00,29.0,15.0,-100.00,WSW,245,0.0,0.0,56,-99.99,,,-99.99,,2013-03-23 10:52:00,
2013-03-23 07:03:00,29.0,15.0,-100.00,WNW,285,0.0,0.0,56,-99.99,,,-99.99,,2013-03-23 11:03:00,
2013-03-23 07:12:00,29.0,15.0,-100.00,WNW,285,0.0,0.0,56,-99.99,,,-99.99,,2013-03-23 11:12:00,
2013-03-23 07:32:00,28.0,15.0,-100.00,SSW,205,0.0,0.0,57,-99.99,,,-99.99,,2013-03-23 11:32:00,
2013-03-23 07:42:00,28.0,15.0,-100.00,SSW,205,0.0,0.0,57,-99.99,,,-99.99,,2013-03-23 11:42:00,
2013-03-23 08:02:00,28.0,15.0,-100.00,West,280,0.0,0.0,58,-99.99,,,-99.99,,2013-03-23 12:02:00,
2013-03-23 08:13:00,28.0,16.0,-100.00,NW,305,0.0,0.0,58,-99.99,,,-99.99,,2013-03-23 12:13:00,
2013-03-23 08:22:00,28.0,16.0,-100.00,NW,305,0.0,0.0,58,-99.99,,,-99.99,,2013-03-23 12:22:00,
2013-03-23 08:33:00,29.0,16.0,-100.00,WNW,285,0.0,0.0,58,-99.99,,,-99.99,,2013-03-23 12:33:00,
2013-03-23 08:43:00,31.0,17.0,-100.00,WNW,295,0.0,10.0,54,-99.99,,,-99.99,,2013-03-23 12:43:00,
2013-03-23 08:52:00,31.0,17.0,-100.00,WNW,295,0.0,10.0,54,-99.99,,,-99.99,,2013-03-23 12:52:00,
2013-03-23 09:03:00,33.0,17.0,-100.00,WNW,285,0.0,0.0,50,-99.99,,,-99.99,,2013-03-23 13:03:00,
2013-03-23 09:12:00,34.0,16.0,-100.00,NNW,330,0.0,17.0,47,-99.99,,,-99.99,,2013-03-23 13:12:00,
2013-03-23 09:23:00,34.0,16.0,-100.00,NNW,330,0.0,17.0,47,-99.99,,,-99.99,,2013-03-23 13:23:00,
2013-03-23 09:33:00,35.0,16.0,-100.00,NW,310,1.0,16.0,45,-99.99,,,-99.99,,2013-03-23 13:33:00,
2013-03-23 09:43:00,36.0,16.0,-100.00,NW,320,1.0,13.0,43,-99.99,,,-99.99,,2013-03-23 13:43:00,
2013-03-23 09:53:00,36.0,16.0,-100.00,NW,320,1.0,13.0,43,-99.99,,,-99.99,,2013-03-23 13:53:00,
2013-03-23 10:03:00,37.0,16.0,-100.00,NW,320,6.0,18.0,43,-99.99,,,-99.99,,2013-03-23 14:03:00,
2013-03-23 10:12:00,37.0,16.0,-100.00,North,0,6.0,15.0,42,-99.99,,,-99.99,,2013-03-23 14:12:00,
2013-03-23 10:23:00,37.0,16.0,-100.00,North,0,6.0,15.0,42,-99.99,,,-99.99,,2013-03-23 14:23:00,
2013-03-23 10:33:00,38.0,16.0,-100.00,NNW,330,6.0,15.0,40,-99.99,,,-99.99,,2013-03-23 14:33:00,
2013-03-23 10:43:00,38.0,16.0,-100.00,NNW,330,6.0,17.0,40,-99.99,,,-99.99,,2013-03-23 14:43:00,
2013-03-23 10:52:00,38.0,16.0,-100.00,NNW,330,6.0,17.0,40,-99.99,,,-99.99,,2013-03-23 14:52:00,
2013-03-23 11:04:00,39.0,16.0,-100.00,NW,305,7.0,18.0,39,-99.99,,,-99.99,,2013-03-23 15:04:00,
2013-03-23 11:13:00,40.0,16.0,-100.00,North,0,8.0,18.0,38,-99.99,,,-99.99,,2013-03-23 15:13:00,
2013-03-23 11:22:00,40.0,16.0,-100.00,North,0,8.0,18.0,38,-99.99,,,-99.99,,2013-03-23 15:22:00,
2013-03-23 11:34:00,41.0,16.0,-100.00,North,0,10.0,22.0,36,-99.99,,,-99.99,,2013-03-23 15:34:00,
2013-03-23 11:44:00,42.0,16.0,-100.00,WNW,300,6.0,20.0,34,-99.99,,,-99.99,,2013-03-23 15:44:00,
2013-03-23 11:53:00,42.0,16.0,-100.00,WNW,300,6.0,20.0,34,-99.99,,,-99.99,,2013-03-23 15:53:00,
2013-03-23 12:03:00,43.0,16.0,-100.00,WNW,300,7.0,20.0,33,-99.99,,,-99.99,,2013-03-23 16:03:00,
2013-03-23 12:13:00,43.0,16.0,-100.00,WNW,300,7.0,20.0,33,-99.99,,,-99.99,,2013-03-23 16:13:00,
2013-03-23 12:33:00,44.0,15.0,-100.00,North,0,7.0,18.0,31,-99.99,,,-99.99,,2013-03-23 16:33:00,
2013-03-23 12:43:00,44.0,15.0,-100.00,NW,325,8.0,21.0,30,-99.99,,,-99.99,,2013-03-23 16:43:00,
2013-03-23 12:53:00,44.0,15.0,-100.00,NW,325,8.0,21.0,30,-99.99,,,-99.99,,2013-03-23 16:53:00,
2013-03-23 13:03:00,44.0,15.0,-100.00,WNW,295,6.0,17.0,30,-99.99,,,-99.99,,2013-03-23 17:03:00,
2013-03-23 13:12:00,45.0,15.0,-100.00,North,350,5.0,19.0,30,-99.99,,,-99.99,,2013-03-23 17:12:00,
2013-03-23 13:23:00,45.0,15.0,-100.00,North,350,5.0,19.0,30,-99.99,,,-99.99,,2013-03-23 17:23:00,
2013-03-23 13:33:00,45.0,15.0,-100.00,North,0,6.0,16.0,29,-99.99,,,-99.99,,2013-03-23 17:33:00,
2013-03-23 13:43:00,46.0,15.0,-100.00,WNW,300,6.0,19.0,28,-99.99,,,-99.99,,2013-03-23 17:43:00,
2013-03-23 13:52:00,46.0,15.0,-100.00,WNW,300,6.0,19.0,28,-99.99,,,-99.99,,2013-03-23 17:52:00,
2013-03-23 14:03:00,47.0,14.0,-100.00,NW,310,7.0,18.0,27,-99.99,,,-99.99,,2013-03-23 18:03:00,
2013-03-23 14:12:00,47.0,14.0,-100.00,North,0,10.0,19.0,26,-99.99,,,-99.99,,2013-03-23 18:12:00,
2013-03-23 14:23:00,47.0,14.0,-100.00,North,0,10.0,19.0,26,-99.99,,,-99.99,,2013-03-23 18:23:00,
2013-03-23 14:32:00,47.0,15.0,-100.00,WNW,295,4.0,19.0,27,-99.99,,,-99.99,,2013-03-23 18:32:00,
2013-03-23 14:43:00,47.0,14.0,-100.00,NNW,340,16.0,27.0,26,-99.99,,,-99.99,,2013-03-23 18:43:00,
2013-03-23 14:52:00,47.0,14.0,-100.00,NNW,340,16.0,27.0,26,-99.99,,,-99.99,,2013-03-23 18:52:00,
2013-03-23 15:03:00,48.0,14.0,-100.00,NW,325,7.0,20.0,26,-99.99,,,-99.99,,2013-03-23 19:03:00,
2013-03-23 15:13:00,48.0,14.0,-100.00,WNW,295,7.0,21.0,26,-99.99,,,-99.99,,2013-03-23 19:13:00,
2013-03-23 15:23:00,48.0,14.0,-100.00,WNW,295,7.0,21.0,26,-99.99,,,-99.99,,2013-03-23 19:23:00,
2013-03-23 15:33:00,47.0,13.0,-100.00,NW,305,9.0,19.0,25,-99.99,,,-99.99,,2013-03-23 19:33:00,
2013-03-23 15:43:00,46.0,13.0,-100.00,NW,310,12.0,21.0,25,-99.99,,,-99.99,,2013-03-23 19:43:00,
2013-03-23 15:52:00,46.0,13.0,-100.00,NW,310,12.0,21.0,25,-99.99,,,-99.99,,2013-03-23 19:52:00,
2013-03-23 16:03:00,47.0,13.0,-100.00,NW,305,8.0,20.0,25,-99.99,,,-99.99,,2013-03-23 20:03:00,
2013-03-23 16:13:00,46.0,13.0,-100.00,NNW,330,9.0,28.0,26,-99.99,,,-99.99,,2013-03-23 20:13:00,
2013-03-23 16:23:00,46.0,13.0,-100.00,NNW,330,9.0,28.0,26,-99.99,,,-99.99,,2013-03-23 20:23:00,
2013-03-23 16:32:00,47.0,14.0,-100.00,NW,305,11.0,22.0,26,-99.99,,,-99.99,,2013-03-23 20:32:00,
2013-03-23 16:43:00,46.0,13.0,-100.00,North,0,8.0,20.0,26,-99.99,,,-99.99,,2013-03-23 20:43:00,
2013-03-23 16:52:00,46.0,13.0,-100.00,North,0,8.0,20.0,26,-99.99,,,-99.99,,2013-03-23 20:52:00,
2013-03-23 17:12:00,46.0,13.0,-100.00,North,0,8.0,24.0,26,-99.99,,,-99.99,,2013-03-23 21:12:00,
2013-03-23 17:22:00,46.0,13.0,-100.00,North,0,8.0,24.0,26,-99.99,,,-99.99,,2013-03-23 21:22:00,
2013-03-23 17:33:00,46.0,13.0,-100.00,NNW,345,11.0,21.0,26,-99.99,,,-99.99,,2013-03-23 21:33:00,
2013-03-23 17:43:00,46.0,13.0,-100.00,NNW,335,10.0,21.0,26,-99.99,,,-99.99,,2013-03-23 21:43:00,
2013-03-23 17:53:00,46.0,13.0,-100.00,NNW,335,10.0,21.0,26,-99.99,,,-99.99,,2013-03-23 21:53:00,
2013-03-23 18:03:00,46.0,13.0,-100.00,North,0,6.0,21.0,26,-99.99,,,-99.99,,2013-03-23 22:03:00,
2013-03-23 18:13:00,45.0,13.0,-100.00,NNW,340,9.0,24.0,26,-99.99,,,-99.99,,2013-03-23 22:13:00,
2013-03-23 18:23:00,45.0,13.0,-100.00,NNW,340,9.0,24.0,26,-99.99,,,-99.99,,2013-03-23 22:23:00,
2013-03-23 18:33:00,46.0,13.0,-100.00,NW,320,3.0,19.0,26,-99.99,,,-99.99,,2013-03-23 22:33:00,
2013-03-23 18:42:00,46.0,12.0,-100.00,NW,305,11.0,25.0,25,-99.99,,,-99.99,,2013-03-23 22:42:00,
2013-03-23 18:53:00,46.0,12.0,-100.00,NW,305,11.0,25.0,25,-99.99,,,-99.99,,2013-03-23 22:53:00,
2013-03-23 19:03:00,45.0,11.0,-100.00,NW,315,9.0,17.0,25,-99.99,,,-99.99,,2013-03-23 23:03:00,
2013-03-23 19:13:00,45.0,12.0,-100.00,WNW,300,8.0,20.0,26,-99.99,,,-99.99,,2013-03-23 23:13:00,
2013-03-23 19:23:00,45.0,12.0,-100.00,WNW,300,8.0,20.0,26,-99.99,,,-99.99,,2013-03-23 23:23:00,
2013-03-23 19:33:00,44.0,12.0,-100.00,NW,305,6.0,17.0,26,-99.99,,,-99.99,,2013-03-23 23:33:00,
2013-03-23 19:43:00,44.0,11.0,-100.00,NW,315,5.0,19.0,26,-99.99,,,-99.99,,2013-03-23 23:43:00,
2013-03-23 19:52:00,44.0,11.0,-100.00,NW,315,5.0,19.0,26,-99.99,,,-99.99,,2013-03-23 23:52:00,
2013-03-23 20:02:00,43.0,11.0,-100.00,NNW,330,4.0,15.0,27,-99.99,,,-99.99,,2013-03-24 00:02:00,
2013-03-23 20:13:00,42.0,12.0,-100.00,North,0,2.0,12.0,28,-99.99,,,-99.99,,2013-03-24 00:13:00,
2013-03-23 20:23:00,42.0,12.0,-100.00,North,0,2.0,12.0,28,-99.99,,,-99.99,,2013-03-24 00:23:00,
2013-03-23 20:33:00,42.0,11.0,-100.00,NNW,330,4.0,13.0,28,-99.99,,,-99.99,,2013-03-24 00:33:00,
2013-03-23 20:42:00,42.0,11.0,-100.00,North,0,5.0,13.0,28,-99.99,,,-99.99,,2013-03-24 00:42:00,
2013-03-23 20:52:00,42.0,11.0,-100.00,North,0,5.0,13.0,28,-99.99,,,-99.99,,2013-03-24 00:52:00,
2013-03-23 21:02:00,41.0,11.0,-100.00,NNW,340,4.0,14.0,29,-99.99,,,-99.99,,2013-03-24 01:02:00,
2013-03-23 21:13:00,41.0,11.0,-100.00,NNW,340,6.0,13.0,29,-99.99,,,-99.99,,2013-03-24 01:13:00,
2013-03-23 21:22:00,41.0,11.0,-100.00,NNW,340,6.0,13.0,29,-99.99,,,-99.99,,2013-03-24 01:22:00,
2013-03-23 21:33:00,40.0,11.0,-100.00,NNW,335,2.0,11.0,30,-99.99,,,-99.99,,2013-03-24 01:33:00,
2013-03-23 21:43:00,40.0,11.0,-100.00,NNW,330,2.0,8.0,30,-99.99,,,-99.99,,2013-03-24 01:43:00,
2013-03-23 21:53:00,40.0,11.0,-100.00,NNW,330,2.0,8.0,30,-99.99,,,-99.99,,2013-03-24 01:53:00,
2013-03-23 22:03:00,39.0,11.0,-100.00,North,0,1.0,7.0,30,-99.99,,,-99.99,,2013-03-24 02:03:00,
2013-03-23 22:12:00,38.0,10.0,-100.00,NNW,330,1.0,4.0,31,-99.99,,,-99.99,,2013-03-24 02:12:00,
2013-03-23 22:22:00,38.0,10.0,-100.00,NNW,330,1.0,4.0,31,-99.99,,,-99.99,,2013-03-24 02:22:00,
2013-03-23 22:32:00,38.0,10.0,-100.00,NW,320,2.0,4.0,32,-99.99,,,-99.99,,2013-03-24 02:32:00,
2013-03-23 22:42:00,37.0,10.0,-100.00,North,0,1.0,5.0,33,-99.99,,,-99.99,,2013-03-24 02:42:00,
2013-03-23 22:52:00,37.0,10.0,-100.00,North,0,1.0,5.0,33,-99.99,,,-99.99,,2013-03-24 02:52:00,
2013-03-23 23:03:00,37.0,11.0,-100.00,North,355,3.0,8.0,33,-99.99,,,-99.99,,2013-03-24 03:03:00,
2013-03-23 23:13:00,37.0,11.0,-100.00,NW,320,3.0,10.0,33,-99.99,,,-99.99,,2013-03-24 03:13:00,
2013-03-23 23:23:00,37.0,11.0,-100.00,NW,320,3.0,10.0,33,-99.99,,,-99.99,,2013-03-24 03:23:00,
2013-03-23 23:33:00,37.0,11.0,-100.00,NNW,340,3.0,10.0,34,-99.99,,,-99.99,,2013-03-24 03:33:00,
2013-03-23 23:42:00,37.0,11.0,-100.00,North,0,1.0,6.0,34,-99.99,,,-99.99,,2013-03-24 03:42:00,
2013-03-23 23:53:00,37.0,11.0,-100.00,North,0,1.0,6.0,34,-99.99,,,-99.99,,2013-03-24 03:53:00,